Location: G�migny
(47.9646°N, 1.6950°E)
Time: 17:03:51
(UTC+00:00)

YAOGAN 6 - Pass Details

Date: 30 January 2020
Orbit: 465 x 506 km, 97.0° (Epoch: 22 February)

Event Time Altitude Azimuth Distance (km) Brightness Sun altitude
Rises 19:00:04 0° 212° (SSW) 2,577 6.7 -21.9°
Reaches altitude 10° 19:03:05 10° 240° (WSW) 1,692 6.2 -22.4°
Maximum altitude 19:04:55 13° 270° (W) 1,491 6.1 -22.7°
Drops below altitude 10° 19:06:45 10° 301° (WNW) 1,689 6.1 -23.0°
Sets 19:09:45 0° 329° (NNW) 2,567 6.6 -23.5°
